Вернуться в каталог

ELISA E24

АктивенВоенныеSSO
NORAD 38008·PAYLOAD·🇫🇷 France

Запущен Dec 17, 2011 с Guiana Space Centre

Loading…

Ближайшие Пролёты (ближайшие 24 часа)

TLE

СвежийSource: Space-Track

Эпоха: Sep 14, 2026, 13:43 UTC

1 38008U 11076B   26257.57184352  .00000356  00000-0  41914-4 0  9998
2 38008  97.6513 275.4250 0001673  70.2100 289.9299 14.90481983792153

Отслеживайте ELISA E24 в реальном времени с AllMySat

Download on the App Store